[[{"header":{"parameterUnit":"m.s-1","parameterCategory":1,"la1":30.2991,"la2":30.254,"lo1":-89.0895,"lo2":-89.0444,"dy":0.0017,"dx":0.0017,"nx":28,"ny":28,"refTime":"2023-11-09T03:00:00:Z","depth":0,"parameterNumber":2,"parameterNumberName":"U-component_of_WINDS"},"data":[0,0,0,0,0,0,0,0,0,0,0,0,0,0,0,0,0,0,0,0,0,0,0,0,0,0,0,0,0,0,0,0,0,0,0,0,0,0,0,0,0,0,0,0,0,0,0,0,0,0,0,0,0,0,0,0,0,0,-2.3399,-2.3398,0,-2.3294,-2.3293,-2.3292,-2.3213,-2.3213,-2.3212,-2.3211,-2.3102,-2.31,-2.3098,0,0,0,0,0,0,0,0,0,0,0,0,0,-2.353,-2.3528,-2.3399,-2.3398,-2.3397,-2.3294,-2.3293,-2.3292,-2.3214,-2.3213,-2.3212,-2.3211,-2.3103,-2.31,-2.3097,0,0,0,0,0,0,0,0,0,0,0,0,0,-2.3454,-2.3528,-2.3399,-2.3345,-2.3339,-2.3295,-2.3293,-2.3291,-2.3214,-2.3213,-2.3212,-2.3211,-2.3104,-2.31,-2.3097,-2.3097,0,0,-2.3087,-2.3085,0,0,0,0,0,0,0,0,-2.3459,-2.345,-2.3355,-2.3349,-2.3342,-2.3266,-2.3299,-2.3226,-2.3214,-2.3261,-2.3211,-2.321,-2.3157,-2.3149,-2.3132,-2.3092,-2.3087,-2.3086,-2.3084,-2.3083,-2.3082,0,0,0,0,0,0,0,-2.3464,-2.3454,-2.3358,-2.3353,-2.3346,-2.3326,-2.3314,-2.3285,-2.3216,-2.3257,-2.3251,-2.324,-2.3154,-2.3135,-2.3129,-2.3086,-2.3086,-2.3083,-2.3081,-2.308,-2.3042,-2.3042,0,0,0,0,0,0,-2.3478,-2.3458,-2.3361,-2.3354,-2.3399,-2.3324,-2.3311,-2.3291,-2.3216,-2.3204,-2.3241,-2.3237,-2.3142,-2.3133,-2.3125,-2.312,-2.3083,-2.308,-2.3078,-2.3041,-2.3042,-2.3043,0,0,0,0,0,0,-2.3481,-2.347,-2.3365,-2.3405,-2.339,-2.3323,-2.3302,-2.329,-2.3272,-2.3204,-2.3192,-2.3235,-2.3141,-2.3129,-2.3105,-2.3116,-2.3078,-2.3075,-2.3039,-2.3041,-2.3042,-2.3112,0,0,0,0,0,0,-2.3485,-2.3472,-2.3471,-2.3405,-2.3388,-2.3348,-2.3303,-2.3289,-2.3266,-2.326,-2.3195,-2.3184,-2.3139,-2.311,-2.3102,-2.311,-2.3072,-2.3038,-2.304,-2.3042,-2.3108,-2.3116,-2.3122,0,0,0,0,0,-2.349,-2.3494,-2.3471,-2.346,-2.3386,-2.3348,-2.3338,-2.3287,-2.3267,-2.3266,-2.3223,-2.3186,-2.3116,-2.3109,-2.3098,-2.3106,-2.3037,-2.3039,-2.3042,-2.3105,-2.3114,-2.3122,0,0,0,0,0,0,-2.3561,-2.3484,-2.3458,-2.3441,-2.3402,-2.3335,-2.3332,-2.3298,-2.3263,-2.3258,-2.3196,-2.3182,-2.3164,-2.3132,-2.3125,-2.3103,-2.3072,-2.3072,-2.3124,-2.3132,-2.3139,-2.3147,-2.307,0,0,0,0,0,-2.3576,-2.3552,-2.3485,-2.3477,-2.3459,-2.3399,-2.3381,-2.3345,-2.3301,-2.3284,-2.3239,-2.3198,-2.3167,-2.3148,-2.3115,-2.3104,-2.3089,-2.3104,-2.3111,-2.3117,-2.3118,-2.311,-2.3116,-2.305,-2.305,-2.305,0,0,-2.3604,-2.3559,-2.3547,-2.349,-2.3455,-2.3432,-2.3385,-2.3362,-2.3344,-2.328,-2.3255,-2.3221,-2.3171,-2.3153,-2.3143,-2.3126,-2.3133,-2.312,-2.3125,-2.3122,-2.3113,-2.312,-2.3125,-2.3052,-2.3052,-2.3051,0,0,-2.3643,-2.3607,-2.3596,-2.3563,-2.3511,-2.3472,-2.347,-2.3408,-2.3383,-2.3357,-2.3309,-2.3287,-2.3234,-2.3201,-2.3177,-2.3206,-2.3171,-2.3197,-2.3232,-2.3226,-2.3231,-2.3236,-2.3247,-2.3252,-2.3198,-2.3199,-2.3199,0,-2.3684,-2.3648,-2.3594,-2.3575,-2.3551,-2.3494,-2.3483,-2.3453,-2.3393,-2.3378,-2.336,-2.3294,-2.3256,-2.3231,-2.3238,-2.322,-2.3216,-2.3204,-2.3235,-2.3239,-2.3242,-2.3252,-2.3256,-2.3202,-2.3202,-2.3201,-2.3201,0,-2.3701,-2.3677,-2.3674,-2.362,-2.3596,-2.3581,-2.3525,-2.3507,-2.3474,-2.3437,-2.3412,-2.3365,-2.3322,-2.3314,-2.328,-2.3284,-2.3275,-2.3247,-2.3215,-2.3253,-2.3261,-2.3265,-2.3207,-2.3206,-2.3205,-2.3204,0,0,-2.3782,-2.3699,-2.3699,-2.3675,-2.3615,-2.3594,-2.3577,-2.3536,-2.3523,-2.3484,-2.3468,-2.3426,-2.34,-2.3373,-2.3336,-2.3331,-2.3358,-2.3303,-2.3301,-2.3316,-2.336,-2.3382,-2.3387,-2.3334,-2.3335,-2.3335,-2.3365,0,-2.3812,-2.3778,-2.3731,-2.3712,-2.3689,-2.3635,-2.362,-2.3582,-2.3547,-2.3522,-2.3483,-2.3455,-2.3422,-2.3406,-2.3398,-2.3357,-2.3366,-2.3354,-2.3319,-2.3318,-2.3334,-2.3391,-2.3414,-2.3444,-2.3367,-2.3368,-2.3368,0,-2.3843,-2.3809,-2.3789,-2.3732,-2.3721,-2.3708,-2.3668,-2.3645,-2.3601,-2.3576,-2.3547,-2.3507,-2.3486,-2.3458,-2.3428,-2.3421,-2.3404,-2.3381,-2.3381,-2.3376,-2.3346,-2.3388,-2.3452,-2.3457,-2.3373,-2.3372,-2.3372,0,-2.3904,-2.3853,-2.3835,-2.3815,-2.3749,-2.3741,-2.3713,-2.3668,-2.3647,-2.3612,-2.3598,-2.3561,-2.354,-2.3512,-2.3464,-2.3447,-2.344,-2.3407,-2.3419,-2.342,-2.3419,-2.342,-2.3482,-2.3408,-2.3408,-2.3408,-2.3408,0,-2.3943,-2.3934,-2.3862,-2.3851,-2.3839,-2.3784,-2.3773,-2.374,-2.37,-2.3682,-2.3632,-2.3616,-2.3552,-2.3529,-2.3491,-2.3473,-2.3463,-2.3443,-2.3433,-2.3447,-2.345,-2.3436,-2.3432,-2.3409,-2.3409,-2.3409,-2.3409,0,-2.401,-2.3962,-2.3939,-2.3878,-2.3863,-2.3856,-2.3804,-2.3791,-2.3754,-2.3731,-2.3723,-2.3664,-2.3634,-2.3583,-2.3537,-2.3512,-2.3501,-2.3484,-2.3517,-2.3511,-2.3526,-2.3525,-2.358,-2.3585,-2.3509,-2.351,-2.351,0,-2.4038,-2.403,-2.3969,-2.3954,-2.3928,-2.3903,-2.3882,-2.3828,-2.3809,-2.3759,-2.3752,-2.3718,-2.3688,-2.3642,-2.3596,-2.3561,-2.3543,-2.3565,-2.3537,-2.3553,-2.3544,-2.3545,-2.3545,-2.3571,-2.3572,-2.3573,-2.3574,0,-2.4094,-2.4071,-2.4043,-2.4008,-2.3985,-2.3954,-2.392,-2.391,-2.3849,-2.3829,-2.3798,-2.3775,-2.373,-2.3697,-2.3656,-2.3627,-2.359,-2.3583,-2.3584,-2.3599,-2.3618,-2.3609,-2.3534,-2.3582,-2.3581,-2.358,-2.358,-2.3579,-2.4142,-2.4133,-2.4089,-2.406,-2.403,-2.4,-2.3986,-2.3947,-2.3921,-2.388,-2.385,-2.3822,-2.3779,-2.372,-2.3693,-2.367,-2.3653,-2.3654,-2.3655,-2.3656,-2.3662,-2.3622,-2.3662,-2.3662,-2.3662,-2.3661,-2.3661,0,-2.4196,-2.4166,-2.414,-2.4096,-2.4073,-2.4042,-2.4004,-2.3987,-2.3963,-2.3926,-2.3898,-2.3863,-2.3832,-2.3783,-2.3748,-2.3739,-2.3721,-2.3731,-2.3732,-2.3726,-2.3679,-2.3682,-2.3746,-2.3746,-2.3746,-2.3746,-2.3746,-2.3746,-2.4222,-2.4204,-2.4177,-2.4144,-2.4113,-2.4085,-2.4066,-2.4039,-2.401,-2.3973,-2.3947,-2.3916,-2.3875,-2.3837,-2.3806,-2.3793,-2.3783,-2.3798,-2.378,-2.3737,-2.3729,-2.3721,-2.3724,-2.3796,-2.3796,-2.3829,-2.3829,-2.3829]},{"header":{"parameterUnit":"m.s-1","parameterCategory":1,"la1":30.2991,"la2":30.254,"lo1":-89.0895,"lo2":-89.0444,"dy":0.0017,"dx":0.0017,"nx":28,"ny":28,"refTime":"2023-11-09T03:00:00:Z","depth":0,"parameterNumber":3,"parameterNumberName":"V-component_of_WINDS"},"data":[0,0,0,0,0,0,0,0,0,0,0,0,0,0,0,0,0,0,0,0,0,0,0,0,0,0,0,0,0,0,0,0,0,0,0,0,0,0,0,0,0,0,0,0,0,0,0,0,0,0,0,0,0,0,0,0,0,0,1.5007,1.5006,0,1.4939,1.4938,1.4937,1.4962,1.4963,1.4965,1.4966,1.4888,1.4885,1.4881,0,0,0,0,0,0,0,0,0,0,0,0,0,1.5152,1.515,1.5007,1.5006,1.5006,1.4939,1.4938,1.4937,1.4961,1.4963,1.4965,1.4967,1.4889,1.4885,1.4881,0,0,0,0,0,0,0,0,0,0,0,0,0,1.5087,1.5149,1.5007,1.501,1.5009,1.4939,1.4938,1.4937,1.4961,1.4963,1.4966,1.4968,1.4891,1.4885,1.488,1.48,0,0,1.4864,1.4862,0,0,0,0,0,0,0,0,1.5091,1.5081,1.501,1.501,1.5009,1.4961,1.496,1.4891,1.496,1.4979,1.4966,1.4969,1.491,1.4903,1.4885,1.4797,1.4793,1.4863,1.486,1.4858,1.4856,0,0,0,0,0,0,0,1.5095,1.5085,1.498,1.5009,1.5008,1.5012,1.5005,1.4947,1.4932,1.4978,1.4979,1.4971,1.491,1.489,1.4883,1.4792,1.4864,1.4859,1.4856,1.4854,1.4636,1.4634,0,0,0,0,0,0,1.5101,1.5088,1.4982,1.4978,1.5057,1.5008,1.5,1.4974,1.4933,1.4929,1.4969,1.4973,1.4898,1.4889,1.4881,1.4786,1.4858,1.4853,1.485,1.4639,1.4636,1.4633,0,0,0,0,0,0,1.5104,1.5091,1.4985,1.5033,1.502,1.5003,1.4973,1.4971,1.4952,1.4927,1.4923,1.4952,1.4899,1.4888,1.4821,1.4783,1.4851,1.4846,1.4642,1.4638,1.4634,1.4594,0,0,0,0,0,0,1.5108,1.5092,1.5063,1.5033,1.5018,1.4928,1.4971,1.4968,1.4943,1.4947,1.491,1.4906,1.49,1.4829,1.4816,1.4777,1.4842,1.4645,1.464,1.4636,1.4599,1.4589,1.4581,0,0,0,0,0,1.5113,1.5053,1.5062,1.5049,1.4981,1.4926,1.4917,1.4915,1.494,1.491,1.4894,1.4907,1.479,1.4822,1.4807,1.4766,1.4648,1.4642,1.4636,1.4603,1.4591,1.4582,0,0,0,0,0,0,1.5075,1.5049,1.5058,1.4987,1.4959,1.493,1.4892,1.4902,1.4865,1.4869,1.4865,1.4857,1.4788,1.477,1.4807,1.4688,1.4722,1.4713,1.4702,1.4691,1.4682,1.4688,1.4837,0,0,0,0,0,1.506,1.5019,1.4997,1.4935,1.4922,1.4909,1.4885,1.4886,1.4856,1.4843,1.4822,1.4791,1.4747,1.4718,1.4676,1.4597,1.4589,1.4561,1.4553,1.4546,1.4538,1.4495,1.4483,1.4614,1.4614,1.4614,0,0,1.5025,1.5005,1.4979,1.4928,1.4906,1.4863,1.4899,1.4851,1.4818,1.4835,1.4772,1.4755,1.4719,1.4646,1.4613,1.4629,1.45,1.4538,1.4533,1.4528,1.4488,1.4475,1.4464,1.461,1.4611,1.4611,0,0,1.4939,1.4921,1.4869,1.4847,1.4816,1.4808,1.4796,1.4766,1.4757,1.4694,1.4706,1.4666,1.459,1.4565,1.4542,1.4449,1.4459,1.4435,1.4389,1.4348,1.4337,1.4328,1.4295,1.4284,1.4427,1.4427,1.4427,0,1.4899,1.4837,1.4839,1.4792,1.4768,1.4785,1.4731,1.4709,1.4664,1.4647,1.4667,1.4574,1.455,1.4472,1.445,1.443,1.4415,1.4439,1.4339,1.433,1.4321,1.429,1.4278,1.4425,1.4425,1.4425,1.4425,0,1.479,1.4746,1.4707,1.4668,1.464,1.4588,1.4581,1.4552,1.4556,1.4546,1.4482,1.4455,1.4409,1.439,1.4391,1.4312,1.4323,1.4341,1.4376,1.4306,1.4277,1.4265,1.4421,1.4422,1.4423,1.4423,0,0,1.4677,1.4642,1.4627,1.461,1.4577,1.4543,1.4492,1.445,1.4425,1.4394,1.4351,1.4287,1.4305,1.4278,1.4277,1.4241,1.417,1.4263,1.4262,1.4247,1.4081,1.4068,1.4054,1.4177,1.4175,1.4173,1.4084,0,1.459,1.4505,1.4506,1.4426,1.4386,1.4402,1.4358,1.4332,1.4321,1.4284,1.4271,1.4227,1.4253,1.4237,1.4202,1.4186,1.4136,1.4192,1.4135,1.4133,1.4144,1.4038,1.4024,1.3941,1.4072,1.407,1.4069,0,1.4476,1.4445,1.4362,1.4337,1.432,1.4281,1.4243,1.4208,1.4178,1.4173,1.4145,1.415,1.4097,1.4134,1.4061,1.4099,1.4075,1.4064,1.4061,1.4055,1.4096,1.4029,1.3914,1.3902,1.405,1.4052,1.4053,0,1.4403,1.434,1.4283,1.4267,1.4237,1.4209,1.4194,1.4167,1.4142,1.4108,1.4092,1.4051,1.4028,1.3996,1.3989,1.4016,1.3915,1.3951,1.3908,1.3908,1.3885,1.3887,1.3765,1.387,1.387,1.3871,1.3871,0,1.4305,1.4254,1.425,1.4215,1.4157,1.4159,1.4101,1.4088,1.4065,1.4026,1.4036,1.3999,1.3993,1.3953,1.3947,1.3887,1.3876,1.387,1.3869,1.3869,1.387,1.3853,1.3858,1.3867,1.3868,1.3869,1.3869,0,1.4214,1.4209,1.4148,1.4125,1.4118,1.4077,1.4056,1.4022,1.4013,1.3964,1.3952,1.3938,1.3892,1.3883,1.3827,1.3824,1.3752,1.3757,1.3763,1.3764,1.3721,1.3725,1.3584,1.3566,1.3683,1.3682,1.3681,0,1.4152,1.4113,1.4087,1.4064,1.4049,1.401,1.3986,1.3985,1.3959,1.3924,1.3893,1.385,1.3815,1.3741,1.3724,1.3682,1.3685,1.3639,1.3679,1.368,1.3685,1.3687,1.3683,1.3631,1.363,1.3629,1.3628,0,1.4042,1.4042,1.4009,1.3974,1.3946,1.3918,1.3891,1.387,1.3866,1.3836,1.3791,1.3765,1.371,1.3666,1.3625,1.3607,1.3616,1.3616,1.3603,1.3603,1.3609,1.3605,1.3743,1.3618,1.3619,1.362,1.3621,1.3621,1.3963,1.3931,1.3908,1.387,1.3851,1.3827,1.3794,1.3783,1.3746,1.3704,1.3706,1.3657,1.3628,1.3574,1.3554,1.3514,1.3529,1.3511,1.3506,1.3502,1.3498,1.3615,1.3507,1.3507,1.3507,1.3507,1.3507,0,1.3855,1.3842,1.3807,1.3772,1.3742,1.3757,1.3728,1.3701,1.3659,1.3634,1.36,1.3549,1.3507,1.3488,1.3446,1.3417,1.342,1.3406,1.3408,1.3404,1.3488,1.3503,1.3405,1.3405,1.3405,1.3405,1.3405,1.3405,1.3795,1.3741,1.3738,1.3674,1.3661,1.3616,1.3598,1.3575,1.3555,1.3499,1.3465,1.3454,1.3431,1.3388,1.3349,1.3344,1.3328,1.3312,1.3309,1.3388,1.3398,1.3408,1.3422,1.3309,1.3308,1.3229,1.3228,1.3227]}]]